Weather in Aosta

Italy     45°44′01″N   7°18′49″E
temp.,
°C
wind,
m/s
gust,
m/s
humid.,
%
clouds,
%
prec.,
mm/h
press.,
hPa
HPBL,
m
13 may, thu
thu1323:000wnw33836 0.0 101258
02:00−1w238144 0.0 101366
05:00−1w23797 0.0 101160
08:00+3w33667 0.0 1008437
11:00+7wnw334855 0.1 10051575
14:00+7wnw445876 0.8 10051471
17:00+7wnw445060 0.3 10051538
20:00+4wnw34625 0.4 1007364
14 may, fri
fri1423:00−2wnw23744 0.0 101247
02:00−3wnw22741 0.0 101344
05:00−3wnw227119 0.0 101240
08:00+2wnw115372 0.0 1010310
11:00+8nnw113690 0.0 10061721
14:00+8nw324594 0.3 10061816
17:00+7nw335786 1.8 10071326
20:00+3wnw35769 2.6 1010307
15 may, sat
sat1523:00−1w238074 0.0 101546
02:00−1wnw228310 0.0 101539
05:00−1wnw1178100 0.0 101434
08:00+1nw1171100 0.1 1013273
11:00+4w1260100 0.3 1010940
14:00+3nnw1190100 2.8 1011418
17:00+2wsw1298100 5.4 1011231
20:00+1wsw2399100 11.1 1012208
16 may, sun
sun1623:00+1wsw2499100 5.0 1013231
02:00+1w349485 5.4 1013108
05:00+1wnw3493100 0.0 101278
08:00+2w249593 0.5 1012188
11:00+3w2392100 1.2 1012405
14:00+5nnw1189100 3.1 1011400
17:00+5wnw1293100 2.8 1009447
20:00+3wsw239999 7.3 1012151
17 may, mon
mon1723:00+2w2499100 2.0 1012209
02:00+2w359970 4.6 1012182
05:00+1wnw349795 1.6 1012213
08:00+2w468819 1.9 1012406
11:00+5wnw45621 0.0 10111081
14:00+7wnw45535 0.0 10101536
17:00+7wnw455436 0.1 10101613
20:00+4wnw347072 0.3 1012242